"Pseudo-MPEC" for J5Sd1Jj

Created 2023 Jan 26 17:22:10 UT using Find_Orb

Click here for an explanation of pseudo-MPECs

 
 Astrometry: 
     J5Sd1Jj*!C2023 01 21t0b:/P7.=rO+mAstrometryTAU$?X(.go51IS('redacted;NjA]W84
     J5Sd1Jj !C2023 01 21u2V)ON2ZAfUvjN/L\5n+J%UWx7^L(Yd#l@`AHrVi9e?click]:N0W84
     J5Sd1Jj !C2023 01 21v=$(B]7yhere[N8b0forqLgcF'_HT;7m0P@9`qVdSxHDx]LjE]aKW84
     J5Sd1Jj !C2023 01 21$%K,ds`YdS9u)Z4D+jb^i0(AHTemksJ+DVIp\(#v#,0k*;\mS%W5W84
     J5Sd1Jj !C2023 01 21%CeM5EF_+jo.bekkhgHNQ:YlPE/]4c=W(jlM6+explanationXZgW84

Station data:
(W84) Cerro Tololo-DECam  (S30.169594 W70.806420)  Chile.  Observer F. Valdes.
    Measurer S. Deen. 4.0-m reflector + CCD.

Orbital elements:  J5Sd1Jj
   Perihelion 2023 Jan 28.49086 +/- 30.8 TT = 11:46:50 (JD 2459972.99086)
Epoch 2023 Jan 21.0 TT = JDT 2459965.5   Earth MOID: 0.2088   Ju: 0.9471
M 358.43723786 +/- 15               Ma: 0.0146                   AutoNEOCP
n   0.20862242 +/- 0.239            Peri.  243.48658 +/- 100
a   2.81554229 +/- 2.15             Node   245.68372 +/- 60
e   0.5971109 +/- 0.255             Incl.    9.29858 +/- 7
P   4.72                   H 23.13  G  0.15   U 11.8  SR
q 1.13435113 +/- 0.127    Q 4.49673346 +/- 46.3           (J2000 ecliptic)
From 5 observations 2023 Jan. 21 (21.9 min); mean residual 0".13
Residuals in arcseconds: 
230121 W84  .09-  .05-    230121 W84  .12-  .26+    230121 W84  .08-  .00     
230121 W84  .15+  .06-    230121 W84  .14+  .15-    

Ephemerides (geocentric):
Date (UTC) HH   RA             Dec           delta  r     elong  mag " sig PA
---- --------  ------------   ------------  ------ ------ -----  --- --------
2023 01 26 17  08 04 39.324   -30 18 00.13  .21314 1.1346 130.5 21.7  48d 168
2023 01 26 18  08 04 46.673   -30 19 31.01  .21317 1.1346 130.4 21.7  48d 168
2023 01 26 19  08 04 54.025   -30 21 01.71  .21321 1.1345 130.4 21.7  48d 168
2023 01 26 20  08 05 01.381   -30 22 32.23  .21324 1.1345 130.4 21.7  48d 168
2023 01 26 21  08 05 08.740   -30 24 02.55  .21327 1.1345 130.4 21.7  49d 168
2023 01 26 22  08 05 16.102   -30 25 32.68  .21331 1.1345 130.4 21.7  49d 168
2023 01 26 23  08 05 23.468   -30 27 02.63  .21334 1.1345 130.4 21.7  49d 168
2023 01 27 00  08 05 30.837   -30 28 32.38  .21338 1.1345 130.3 21.7  49d 168
2023 01 27 01  08 05 38.209   -30 30 01.95  .21341 1.1345 130.3 21.7  49d 168
2023 01 27 02  08 05 45.584   -30 31 31.33  .21345 1.1345 130.3 21.7  49d 167
2023 01 27 03  08 05 52.963   -30 33 00.52  .21348 1.1345 130.3 21.7  49d 167
2023 01 27 04  08 06 00.344   -30 34 29.52  .21352 1.1345 130.3 21.7  49d 167
2023 01 27 05  08 06 07.729   -30 35 58.33  .21355 1.1345 130.3 21.7  49d 167
2023 01 27 06  08 06 15.118   -30 37 26.96  .21359 1.1345 130.3 21.7  49d 167
2023 01 27 07  08 06 22.509   -30 38 55.39  .21363 1.1344 130.2 21.7  49d 167
2023 01 27 08  08 06 29.904   -30 40 23.64  .21366 1.1344 130.2 21.7  49d 167
2023 01 27 09  08 06 37.301   -30 41 51.69  .21370 1.1344 130.2 21.7  49d 167
2023 01 27 10  08 06 44.702   -30 43 19.56  .21373 1.1344 130.2 21.7  49d 167
2023 01 27 11  08 06 52.107   -30 44 47.24  .21377 1.1344 130.2 21.7  50d 168
2023 01 27 12  08 06 59.514   -30 46 14.72  .21381 1.1344 130.2 21.7  50d 168
2023 01 27 13  08 07 06.924   -30 47 42.02  .21384 1.1344 130.1 21.7  50d 168
2023 01 27 14  08 07 14.338   -30 49 09.13  .21388 1.1344 130.1 21.7  50d 168
2023 01 27 15  08 07 21.755   -30 50 36.05  .21392 1.1344 130.1 21.7  50d 168
2023 01 27 16  08 07 29.175   -30 52 02.78  .21395 1.1344 130.1 21.7  50d 168
2023 01 27 17  08 07 36.598   -30 53 29.32  .21399 1.1344 130.1 21.7  50d 168
2023 01 27 18  08 07 44.024   -30 54 55.67  .21403 1.1344 130.1 21.7  50d 168
2023 01 27 19  08 07 51.453   -30 56 21.83  .21406 1.1344 130.1 21.7  50d 168
2023 01 27 20  08 07 58.885   -30 57 47.81  .21410 1.1344 130.0 21.7  51d 168
2023 01 27 21  08 08 06.320   -30 59 13.59  .21414 1.1344 130.0 21.7  51d 168
2023 01 27 22  08 08 13.759   -31 00 39.18  .21418 1.1344 130.0 21.7  51d 168
2023 01 27 23  08 08 21.200   -31 02 04.58  .21421 1.1344 130.0 21.7  51d 168
2023 01 28 00  08 08 28.645   -31 03 29.80  .21425 1.1344 130.0 21.7  51d 168
2023 01 28 01  08 08 36.092   -31 04 54.82  .21429 1.1344 130.0 21.7  51d 168
2023 01 28 02  08 08 43.543   -31 06 19.66  .21433 1.1344 130.0 21.7  51d 168
2023 01 28 03  08 08 50.996   -31 07 44.30  .21437 1.1344 129.9 21.7  51d 168
2023 01 28 04  08 08 58.453   -31 09 08.75  .21441 1.1344 129.9 21.7  52d 168
2023 01 28 05  08 09 05.912   -31 10 33.02  .21444 1.1344 129.9 21.7  52d 167
2023 01 28 06  08 09 13.375   -31 11 57.09  .21448 1.1344 129.9 21.7  52d 167
2023 01 28 07  08 09 20.840   -31 13 20.98  .21452 1.1344 129.9 21.7  52d 167
2023 01 28 08  08 09 28.308   -31 14 44.67  .21456 1.1344 129.9 21.7  52d 167
2023 01 28 09  08 09 35.780   -31 16 08.17  .21460 1.1344 129.9 21.7  52d 167
2023 01 28 10  08 09 43.254   -31 17 31.49  .21464 1.1344 129.8 21.7  52d 167
2023 01 28 11  08 09 50.731   -31 18 54.61  .21468 1.1344 129.8 21.7  52d 167
2023 01 28 12  08 09 58.211   -31 20 17.55  .21472 1.1344 129.8 21.7  52d 167
2023 01 28 13  08 10 05.694   -31 21 40.29  .21476 1.1344 129.8 21.7  52d 167
2023 01 28 14  08 10 13.180   -31 23 02.84  .21480 1.1344 129.8 21.7  53d 167
2023 01 28 15  08 10 20.669   -31 24 25.21  .21484 1.1344 129.8 21.8  53d 167
2023 01 28 16  08 10 28.161   -31 25 47.38  .21488 1.1344 129.8 21.8  53d 167